When you browse on this site, cookies collect data to enhance your experience and personalize the content and advertising you see.
Visit our Privacy Policy to learn more. By continuing to use the site, you agree to this use of cookies and data.
  • In Spain
  • List of Countries
  • For 7 days
  • Water Temperature
  • Weather Map
  • Weather Widgets
  • user-avatar
    Login

    Hourly Weather Katowice

    Today, 3 June, Wednesday

    Time Temperature Precipitation Wind Pressure Humidity
    00:00 +11°C° 0 mm 1 mps 731 mmHg 85%
    01:00 +9°C° 0 mm 2 mps 731 mmHg 89%
    02:00 +10°C° 0 mm 1 mps 730 mmHg 89%
    03:00 +10°C° 0 mm 1 mps 730 mmHg 90%
    04:00 +9°C° 0 mm 1 mps 729 mmHg 90%
    05:00 +11°C° 0.1 mm 1 mps 729 mmHg 84%
    06:00 +13°C° 0.1 mm 1 mps 729 mmHg 77%
    07:00 +15°C° 0 mm 2 mps 730 mmHg 69%
    08:00 +16°C° 0.1 mm 2 mps 729 mmHg 61%
    09:00 +17°C° 0.1 mm 2 mps 729 mmHg 53%
    10:00 +18°C° 0.1 mm 3 mps 729 mmHg 46%
    11:00 +19°C° 0 mm 3 mps 729 mmHg 45%
    12:00 +19°C° 0 mm 3 mps 729 mmHg 43%
    13:00 +20°C° 0 mm 3 mps 729 mmHg 42%
    14:00 +19°C° 0.1 mm 3 mps 729 mmHg 45%
    15:00 +19°C° 0.1 mm 3 mps 728 mmHg 48%
    16:00 +19°C° 0.1 mm 3 mps 728 mmHg 51%
    17:00 +17°C° 0.1 mm 2 mps 728 mmHg 57%
    18:00 +16°C° 0.1 mm 2 mps 728 mmHg 63%
    19:00 +15°C° 0.1 mm 2 mps 728 mmHg 69%
    20:00 +14°C° 0 mm 1 mps 728 mmHg 73%
    21:00 +13°C° 0 mm 1 mps 728 mmHg 77%
    22:00 +11°C° 0 mm 1 mps 728 mmHg 81%
    23:00 +11°C° 0 mm 1 mps 728 mmHg 81%

    Tomorrow, 4 June, Thursday

    Time Temperature Precipitation Wind Pressure Humidity
    00:00 +11°C° 0 mm 1 mps 727 mmHg 82%
    01:00 +10°C° 0 mm 1 mps 727 mmHg 83%
    02:00 +10°C° 0 mm 1 mps 727 mmHg 83%
    03:00 +10°C° 0 mm 1 mps 727 mmHg 84%
    04:00 +10°C° 0 mm 1 mps 726 mmHg 84%
    05:00 +11°C° 0 mm 1 mps 726 mmHg 77%
    06:00 +13°C° 0 mm 1 mps 726 mmHg 71%
    07:00 +15°C° 0 mm 1 mps 726 mmHg 65%
    08:00 +16°C° 0 mm 1 mps 726 mmHg 60%
    09:00 +18°C° 0 mm 2 mps 726 mmHg 55%
    10:00 +19°C° 0 mm 2 mps 726 mmHg 50%
    11:00 +20°C° 0 mm 2 mps 725 mmHg 49%
    12:00 +21°C° 0 mm 2 mps 725 mmHg 48%
    13:00 +23°C° 0 mm 2 mps 725 mmHg 47%
    14:00 +21°C° 0.2 mm 2 mps 724 mmHg 54%
    15:00 +21°C° 0.2 mm 2 mps 724 mmHg 60%
    16:00 +20°C° 0.2 mm 2 mps 724 mmHg 66%
    17:00 +19°C° 0 mm 2 mps 723 mmHg 69%
    18:00 +18°C° 0 mm 2 mps 723 mmHg 73%
    19:00 +18°C° 0 mm 2 mps 722 mmHg 76%
    20:00 +17°C° 0 mm 3 mps 722 mmHg 77%
    21:00 +16°C° 0 mm 3 mps 721 mmHg 79%
    22:00 +14°C° 0 mm 3 mps 721 mmHg 80%
    23:00 +14°C° 0 mm 3 mps 721 mmHg 81%

    Day after tomorrow, 5 June, Friday

    Time Temperature Precipitation Wind Pressure Humidity
    00:00 +14°C° 0 mm 3 mps 720 mmHg 83%
    01:00 +14°C° 0 mm 3 mps 720 mmHg 84%
    02:00 +14°C° 0 mm 3 mps 720 mmHg 84%
    03:00 +14°C° 0 mm 3 mps 720 mmHg 84%
    04:00 +14°C° 0 mm 3 mps 719 mmHg 83%
    05:00 +15°C° 0 mm 4 mps 720 mmHg 81%
    06:00 +16°C° 0 mm 5 mps 720 mmHg 78%
    07:00 +17°C° 0 mm 7 mps 721 mmHg 76%
    08:00 +16°C° 0.1 mm 6 mps 721 mmHg 79%
    09:00 +15°C° 0.1 mm 5 mps 722 mmHg 82%
    10:00 +15°C° 0.1 mm 4 mps 722 mmHg 85%
    11:00 +14°C° 0.4 mm 3 mps 723 mmHg 86%
    12:00 +13°C° 0.4 mm 3 mps 723 mmHg 88%
    13:00 +13°C° 0.4 mm 3 mps 724 mmHg 89%
    14:00 +14°C° 0.4 mm 2 mps 724 mmHg 89%
    15:00 +13°C° 0.4 mm 2 mps 724 mmHg 90%
    16:00 +13°C° 0.4 mm 1 mps 724 mmHg 90%
    17:00 +13°C° 1.3 mm 1 mps 724 mmHg 91%
    18:00 +13°C° 1.3 mm 2 mps 724 mmHg 93%
    19:00 +12°C° 1.3 mm 2 mps 725 mmHg 94%
    20:00 +12°C° 0.4 mm 2 mps 725 mmHg 94%
    21:00 +12°C° 0.4 mm 2 mps 726 mmHg 94%
    22:00 +12°C° 0.4 mm 2 mps 726 mmHg 94%
    23:00 +11°C° 0 mm 3 mps 727 mmHg 92%

    6 June, Saturday

    Time Temperature Precipitation Wind Pressure Humidity
    00:00 +10°C° 0 mm 3 mps 727 mmHg 91%
    01:00 +10°C° 0 mm 3 mps 727 mmHg 90%
    02:00 +10°C° 0 mm 3 mps 728 mmHg 90%
    03:00 +10°C° 0 mm 3 mps 728 mmHg 90%
    04:00 +10°C° 0 mm 3 mps 728 mmHg 90%
    05:00 +11°C° 0 mm 4 mps 729 mmHg 84%
    06:00 +13°C° 0 mm 4 mps 729 mmHg 78%
    07:00 +14°C° 0 mm 5 mps 729 mmHg 73%
    08:00 +16°C° 0 mm 5 mps 729 mmHg 68%
    09:00 +17°C° 0 mm 6 mps 730 mmHg 63%
    10:00 +19°C° 0 mm 6 mps 730 mmHg 58%
    11:00 +20°C° 0 mm 7 mps 730 mmHg 55%
    12:00 +21°C° 0 mm 7 mps 731 mmHg 53%
    13:00 +22°C° 0 mm 7 mps 731 mmHg 50%
    14:00 +22°C° 0.1 mm 7 mps 731 mmHg 52%
    15:00 +22°C° 0.1 mm 6 mps 731 mmHg 55%
    16:00 +22°C° 0.1 mm 5 mps 731 mmHg 58%
    17:00 +21°C° 0.1 mm 4 mps 731 mmHg 63%
    18:00 +20°C° 0.1 mm 2 mps 731 mmHg 68%
    19:00 +20°C° 0.1 mm 1 mps 731 mmHg 74%
    20:00 +19°C° 0 mm 1 mps 732 mmHg 76%
    21:00 +18°C° 0 mm 1 mps 732 mmHg 77%
    22:00 +16°C° 0 mm 1 mps 732 mmHg 79%
    23:00 +16°C° 0 mm 1 mps 732 mmHg 80%

    7 June, Sunday

    Time Temperature Precipitation Wind Pressure Humidity
    00:00 +16°C° 0 mm 2 mps 732 mmHg 81%
    01:00 +15°C° 0 mm 2 mps 732 mmHg 82%
    02:00 +15°C° 0 mm 2 mps 732 mmHg 82%
    03:00 +15°C° 0 mm 1 mps 732 mmHg 82%
    04:00 +15°C° 0 mm 1 mps 732 mmHg 82%
    05:00 +16°C° 0.1 mm 1 mps 732 mmHg 78%
    06:00 +18°C° 0.1 mm 1 mps 732 mmHg 75%
    07:00 +19°C° 0.1 mm 1 mps 732 mmHg 71%
    08:00 +21°C° 0 mm 1 mps 732 mmHg 64%
    09:00 +23°C° 0 mm 1 mps 732 mmHg 56%
    10:00 +25°C° 0 mm 1 mps 732 mmHg 49%
    11:00 +26°C° 0 mm 2 mps 732 mmHg 46%
    12:00 +27°C° 0 mm 2 mps 731 mmHg 43%
    13:00 +27°C° 0 mm 2 mps 731 mmHg 41%
    14:00 +27°C° 0 mm 2 mps 731 mmHg 45%
    15:00 +26°C° 0 mm 1 mps 730 mmHg 49%
    16:00 +25°C° 0 mm 1 mps 730 mmHg 53%
    17:00 +24°C° 0.4 mm 1 mps 730 mmHg 60%
    18:00 +23°C° 0.4 mm 2 mps 730 mmHg 67%
    19:00 +20°C° 0.4 mm 2 mps 730 mmHg 75%
    20:00 +19°C° 0.4 mm 2 mps 730 mmHg 78%
    21:00 +18°C° 0.4 mm 2 mps 730 mmHg 81%
    22:00 +17°C° 0.4 mm 2 mps 731 mmHg 84%
    23:00 +17°C° 0.1 mm 2 mps 731 mmHg 88%

    8 June, Monday

    Time Temperature Precipitation Wind Pressure Humidity
    00:00 +16°C° 0.1 mm 3 mps 731 mmHg 91%
    01:00 +16°C° 0.1 mm 3 mps 731 mmHg 94%
    02:00 +14°C° 0.1 mm 3 mps 731 mmHg 94%
    03:00 +14°C° 0.1 mm 3 mps 731 mmHg 94%
    04:00 +14°C° 0.1 mm 3 mps 731 mmHg 94%
    05:00 +14°C° 0.1 mm 3 mps 732 mmHg 93%
    06:00 +14°C° 0.1 mm 3 mps 732 mmHg 93%
    07:00 +13°C° 0.1 mm 3 mps 732 mmHg 92%
    08:00 +14°C° 0 mm 3 mps 732 mmHg 89%
    09:00 +14°C° 0 mm 3 mps 733 mmHg 87%
    10:00 +14°C° 0 mm 3 mps 733 mmHg 84%
    11:00 +16°C° 0 mm 3 mps 733 mmHg 82%
    12:00 +16°C° 0 mm 3 mps 733 mmHg 80%
    13:00 +15°C° 0 mm 4 mps 733 mmHg 78%
    14:00 +14°C° 0 mm 4 mps 733 mmHg 80%
    15:00 +13°C° 0 mm 4 mps 733 mmHg 82%
    16:00 +13°C° 0 mm 4 mps 733 mmHg 83%
    17:00 +12°C° 0 mm 3 mps 733 mmHg 84%
    18:00 +13°C° 0 mm 2 mps 733 mmHg 84%
    19:00 +13°C° 0 mm 2 mps 734 mmHg 84%
    20:00 +12°C° 0 mm 2 mps 734 mmHg 85%
    21:00 +12°C° 0 mm 2 mps 734 mmHg 87%
    22:00 +10°C° 0 mm 2 mps 735 mmHg 89%
    23:00 +12°C° 0 mm 1 mps 735 mmHg 88%
    Show more